Temp
22 22 23 23 20 17 19 22 23 25 26 28 27 26 25 26 24 24 28 29 28 27 24 23 23 23 23 23 23 23 23 23 23 23 22 22 21 21 21 21 21 20 20 20 20 20 19 20 20
21 22 22 22 19 19 20 22 25 25 26 28 30 28 27 28 28 28 28 28 27 27 25 24 23 23 23 23 23 23 23 23 23 23 22 22 21 21 21 21 21 20 20 20 20 20 20 20 20
20 21 21 17 15 19 20 23 25 25 27 27 29 30 29 28 29 29 28 28 27 26 25 24 24 23 23 23 23 23 23 23 23 23 22 22 21 21 21 21 21 21 20 20 20 20 20 20 20
19 20 19 16 17 18 21 23 22 23 27 27 28 26 29 29 29 30 30 29 27 26 25 24 24 23 23 23 23 23 22 22 23 22 22 22 22 21 21 21 21 21 21 20 20 21 20 20 20
19 18 14 15 15 17 19 21 23 23 25 26 27 27 28 29 29 30 30 28 28 26 25 24 24 23 23 23 23 22 22 22 22 22 22 22 22 22 21 21 21 21 21 21 21 21 20 20 20
18 16 14 13 16 18 19 22 23 23 24 25 25 25 29 29 28 28 29 28 26 26 25 25 24 23 23 23 22 22 22 22 22 22 22 22 22 21 21 21 21 20 21 21 21 21 20 20 20
15 12 13 14 16 17 20 22 22 21 22 24 25 25 26 26 22 26 26 25 25 25 25 24 24 23 22 22 22 22 21 21 21 22 22 22 21 21 21 21 21 21 21 21 21 21 20 20 20
18 12 15 15 16 16 20 20 22 22 22 24 25 22 23 24 23 23 25 24 23 24 24 25 23 23 22 22 22 22 21 21 21 21 21 21 21 21 21 21 21 21 21 21 21 21 20 20 20
18 12 11 15 17 17 19 18 21 21 22 22 24 24 24 23 22 22 21 23 23 23 23 23 24 23 22 21 21 21 21 21 21 21 21 21 21 20 21 21 21 21 21 20 21 21 20 20 20
14 10 13 14 18 17 18 18 19 20 21 21 23 24 24 24 24 21 19 20 20 23 23 23 24 23 23 22 20 20 20 20 20 20 20 21 20 21 21 20 20 21 20 20 20 20 20 20 19
15 13 14 17 18 18 17 18 20 19 19 21 22 23 23 23 24 24 23 19 19 19 20 22 23 24 23 22 21 20 20 20 20 20 20 20 20 20 20 20 21 21 20 21 20 20 19 19 19
15 16 16 17 18 17 16 19 18 20 20 21 21 22 22 22 23 24 24 24 24 21 21 20 21 23 23 23 22 21 20 20 20 20 20 20 20 20 21 21 21 21 20 21 20 20 19 19 19
15 16 16 17 17 17 17 16 17 18 21 21 21 21 22 23 23 23 24 24 24 24 22 22 20 21 23 23 23 22 22 21 21 21 21 20 20 20 21 20 21 20 20 20 20 19 19 19 19
16 15 15 16 17 16 16 16 17 19 21 21 21 20 21 23 23 23 23 23 24 24 23 21 21 20 20 22 23 23 23 23 22 21 21 21 21 20 20 20 20 20 20 20 19 19 19 19 19
16 13 12 14 16 15 17 15 16 20 20 19 20 21 20 21 22 22 22 23 23 24 24 23 21 21 19 19 20 22 22 22 22 22 22 21 21 20 20 20 20 20 20 19 19 19 18 19 18
12 12 11 13 15 16 16 14 16 20 19 19 19 20 20 20 21 22 23 22 22 23 23 24 23 21 20 19 19 20 21 21 22 22 22 21 21 20 20 20 20 19 19 19 19 19 19 18 18
10 10 11 12 15 14 15 15 16 18 18 17 18 19 19 20 21 22 22 22 22 22 22 23 24 22 20 20 19 19 20 20 21 21 22 22 21 20 20 19 19 19 19 19 19 19 18 18 18
11 10 10 12 15 14 13 13 15 17 16 16 17 17 19 19 20 21 22 23 22 22 23 23 23 22 20 20 19 18 19 19 20 20 21 21 21 20 19 19 19 18 18 18 19 19 18 17 17
12 12 11 13 14 13 14 13 15 15 15 14 16 17 18 19 19 20 20 21 22 22 22 22 22 22 19 19 18 18 18 19 19 19 19 20 20 20 19 19 18 18 18 19 19 18 17 18 18
12 11 12 13 14 13 14 14 15 14 14 16 16 17 17 18 19 20 20 21 21 22 22 22 21 21 21 19 19 18 18 18 19 18 19 19 20 20 19 19 18 18 18 18 18 18 18 18 18
13 12 13 12 14 13 12 13 14 15 15 16 16 17 17 17 18 19 20 21 21 21 22 21 22 21 20 20 19 18 18 18 18 18 19 19 19 19 19 18 18 18 18 18 18 18 19 18 18
11 13 13 13 12 11 12 11 14 14 12 13 14 15 15 16 17 19 20 20 20 21 21 21 21 21 21 19 18 18 19 17 19 19 20 19 19 19 19 18 18 18 18 18 18 18 18 18 18
11 12 12 12 11 10 10 9 14 13 13 14 13 14 15 15 16 18 18 19 20 21 20 19 20 20 21 20 18 18 19 19 19 20 19 19 20 19 19 18 18 18 18 18 18 18 18 18 18
12 11 10 9 8 8 10 9 13 11 11 12 12 15 16 16 17 17 18 19 19 19 19 19 20 20 20 20 19 18 19 19 19 20 20 19 19 19 18 18 18 18 18 18 17 17 17 17 18
11 8 6 7 7 9 10 8 12 13 13 14 14 14 15 15 15 16 17 18 19 18 18 17 18 19 20 20 19 19 18 18 20 20 20 20 20 18 19 18 18 18 17 17 17 17 17 17 17
9 8 5 7 8 8 10 9 11 12 13 16 15 15 14 14 15 16 16 17 17 16 16 16 18 18 19 19 19 20 18 17 18 19 20 20 20 19 18 18 18 17 17 17 17 17 17 17 16
9 7 9 8 9 7 9 10 11 12 13 12 12 13 13 13 14 14 15 15 16 17 16 16 17 18 19 20 20 20 20 17 17 18 19 19 19 19 18 18 17 17 17 16 16 16 16 16 16
10 10 6 5 7 8 9 10 11 12 13 13 11 10 12 13 13 14 14 14 14 14 16 16 17 18 20 20 20 20 19 19 16 17 19 19 19 19 18 17 17 17 16 16 16 16 16 15 15
9 8 8 7 7 8 8 9 11 11 10 9 10 11 11 11 12 12 12 12 13 14 14 15 17 18 19 19 20 20 18 18 16 17 19 19 17 18 17 17 17 17 16 15 15 15 15 14 14
9 9 8 6 7 8 6 8 13 13 11 8 7 8 9 10 10 10 11 11 12 11 13 14 17 17 18 20 20 19 18 18 17 18 18 18 17 16 16 16 16 16 15 14 14 14 14 13 13
Height
1491 1491 1491 1492 1504 1508 1512 1496 1486 1480 1480 1475 1476 1477 1470 1468 1474 1482 1455 1458 1462 1467 1475 1480 1483 1485 1489 1491 1493 1496 1497 1498 1500 1502 1504 1506 1508 1510 1511 1513 1515 1517 1517 1518 1519 1519 1519 1520 1521
1490 1490 1492 1493 1510 1517 1509 1486 1487 1480 1479 1474 1467 1468 1470 1462 1461 1458 1456 1459 1463 1465 1472 1477 1481 1484 1488 1491 1493 1495 1496 1498 1499 1502 1504 1505 1508 1510 1512 1514 1516 1518 1519 1519 1520 1520 1521 1521 1522
1489 1490 1493 1498 1512 1512 1504 1483 1480 1478 1476 1478 1474 1469 1468 1462 1457 1456 1455 1457 1460 1465 1470 1475 1480 1483 1487 1490 1493 1494 1496 1497 1499 1502 1504 1505 1508 1510 1513 1515 1516 1518 1519 1521 1521 1521 1522 1523 1524
1490 1492 1496 1506 1505 1495 1485 1479 1480 1480 1473 1481 1478 1471 1465 1461 1458 1456 1456 1457 1460 1464 1469 1474 1479 1483 1487 1489 1492 1494 1496 1497 1499 1502 1505 1506 1508 1510 1513 1515 1517 1518 1519 1521 1522 1522 1523 1524 1526
1491 1493 1505 1508 1502 1490 1483 1482 1483 1484 1480 1477 1478 1474 1463 1460 1459 1458 1458 1459 1459 1461 1467 1473 1477 1481 1486 1489 1491 1494 1496 1498 1499 1502 1505 1506 1508 1511 1513 1515 1517 1518 1520 1520 1521 1523 1524 1526 1526
1493 1496 1512 1515 1500 1490 1485 1482 1482 1482 1483 1478 1475 1474 1466 1461 1460 1460 1457 1459 1461 1462 1466 1471 1477 1481 1484 1488 1491 1494 1496 1498 1500 1503 1506 1507 1509 1511 1513 1515 1517 1518 1519 1521 1522 1523 1524 1526 1526
1493 1502 1508 1505 1500 1493 1485 1483 1482 1482 1482 1481 1479 1475 1471 1465 1463 1462 1462 1462 1462 1463 1465 1469 1475 1481 1485 1488 1491 1493 1496 1497 1500 1502 1505 1507 1509 1511 1513 1514 1516 1518 1519 1520 1521 1523 1524 1525 1526
1493 1497 1502 1499 1499 1495 1482 1483 1483 1482 1480 1482 1481 1479 1475 1468 1461 1464 1464 1465 1467 1466 1467 1468 1472 1476 1481 1485 1489 1492 1495 1497 1500 1502 1505 1507 1508 1511 1513 1514 1515 1517 1519 1520 1521 1522 1523 1525 1526
1493 1504 1511 1500 1495 1488 1481 1482 1480 1481 1479 1479 1480 1481 1479 1473 1466 1466 1467 1468 1469 1469 1469 1470 1470 1475 1480 1483 1487 1490 1493 1497 1499 1502 1505 1507 1508 1510 1512 1514 1515 1517 1518 1520 1521 1522 1523 1525 1525
1493 1507 1503 1492 1489 1487 1481 1481 1478 1480 1478 1477 1474 1477 1477 1475 1472 1471 1471 1472 1473 1471 1469 1470 1473 1474 1478 1483 1486 1489 1492 1494 1497 1500 1503 1505 1507 1509 1511 1513 1515 1516 1518 1519 1521 1522 1523 1524 1526
1491 1498 1491 1488 1486 1486 1483 1478 1476 1474 1475 1475 1474 1468 1474 1474 1474 1473 1472 1473 1473 1475 1476 1474 1473 1472 1475 1479 1483 1487 1490 1491 1494 1498 1501 1503 1506 1508 1509 1511 1513 1515 1516 1518 1520 1522 1523 1524 1526
1493 1489 1489 1488 1486 1484 1482 1478 1474 1472 1472 1472 1471 1469 1467 1473 1473 1474 1473 1471 1471 1472 1473 1477 1477 1475 1473 1474 1478 1483 1486 1489 1491 1495 1498 1501 1504 1506 1507 1509 1511 1513 1515 1517 1519 1521 1524 1525 1527
1490 1488 1486 1485 1484 1481 1478 1476 1473 1468 1467 1468 1467 1466 1463 1463 1468 1469 1469 1469 1469 1468 1468 1469 1472 1474 1473 1472 1474 1477 1480 1484 1488 1493 1496 1498 1501 1503 1506 1508 1510 1512 1514 1517 1519 1521 1522 1525 1527
1490 1488 1485 1482 1479 1477 1475 1471 1471 1466 1464 1462 1462 1461 1460 1458 1456 1464 1464 1464 1464 1464 1463 1465 1466 1467 1471 1471 1469 1470 1474 1479 1485 1489 1493 1495 1499 1502 1504 1506 1508 1510 1513 1516 1520 1521 1523 1525 1526
1488 1488 1482 1476 1474 1473 1470 1469 1468 1463 1461 1458 1455 1454 1454 1453 1453 1449 1457 1459 1460 1460 1460 1460 1462 1464 1465 1469 1471 1470 1472 1476 1479 1484 1489 1492 1496 1500 1502 1504 1506 1509 1513 1516 1518 1520 1522 1524 1525
1491 1489 1495 1478 1473 1469 1470 1472 1461 1459 1457 1455 1451 1449 1449 1448 1448 1447 1444 1450 1453 1454 1454 1455 1456 1457 1459 1463 1467 1468 1471 1476 1477 1479 1483 1488 1492 1497 1500 1502 1504 1507 1510 1513 1516 1519 1521 1523 1525
1499 1503 1494 1482 1472 1470 1469 1463 1457 1455 1453 1451 1449 1447 1443 1442 1441 1441 1440 1441 1444 1447 1448 1448 1448 1449 1453 1455 1461 1465 1473 1474 1475 1478 1481 1483 1488 1493 1496 1500 1503 1506 1509 1512 1514 1516 1518 1520 1523
1501 1502 1494 1485 1471 1469 1467 1459 1453 1450 1448 1446 1444 1442 1439 1436 1436 1437 1435 1436 1436 1438 1439 1440 1441 1441 1445 1449 1454 1462 1469 1471 1475 1476 1477 1480 1484 1489 1494 1497 1501 1505 1507 1510 1512 1513 1516 1519 1520
1490 1489 1487 1475 1468 1470 1462 1456 1444 1443 1444 1442 1439 1437 1433 1431 1429 1432 1432 1432 1433 1433 1433 1433 1434 1435 1439 1442 1446 1455 1460 1466 1470 1473 1477 1479 1483 1487 1491 1494 1498 1502 1505 1508 1510 1511 1514 1517 1518
1484 1486 1480 1465 1464 1465 1459 1446 1436 1440 1438 1434 1431 1428 1426 1425 1422 1422 1425 1427 1427 1427 1428 1428 1429 1429 1432 1435 1440 1447 1457 1464 1466 1469 1473 1477 1480 1483 1486 1491 1494 1498 1502 1505 1507 1509 1512 1514 1516
1479 1481 1473 1470 1459 1457 1458 1441 1438 1430 1429 1425 1422 1421 1419 1418 1417 1415 1416 1418 1421 1421 1421 1423 1424 1425 1426 1430 1436 1442 1453 1460 1463 1463 1465 1470 1474 1479 1483 1486 1490 1496 1499 1502 1504 1507 1510 1513 1514
1480 1470 1466 1464 1466 1465 1458 1456 1416 1425 1425 1423 1418 1414 1411 1411 1411 1409 1407 1410 1412 1412 1414 1416 1418 1419 1421 1424 1429 1434 1437 1448 1452 1454 1458 1464 1469 1476 1480 1484 1485 1492 1497 1499 1502 1504 1508 1509 1512
1474 1467 1465 1462 1462 1462 1462 1472 1395 1421 1421 1416 1410 1408 1406 1404 1405 1402 1402 1402 1405 1405 1407 1412 1414 1415 1416 1418 1422 1428 1431 1436 1444 1448 1455 1459 1457 1469 1477 1481 1483 1489 1494 1496 1498 1501 1504 1506 1510
1468 1466 1462 1462 1464 1467 1452 1459 1398 1426 1420 1412 1406 1405 1403 1401 1399 1397 1397 1394 1396 1399 1401 1404 1406 1411 1415 1416 1417 1421 1424 1429 1434 1440 1444 1451 1454 1462 1473 1477 1483 1487 1490 1493 1495 1499 1502 1505 1507
1467 1472 1483 1471 1472 1452 1439 1449 1413 1412 1410 1406 1402 1400 1400 1399 1397 1393 1391 1391 1388 1392 1396 1398 1400 1402 1406 1410 1413 1417 1420 1423 1426 1430 1437 1442 1448 1454 1462 1471 1479 1484 1486 1490 1493 1496 1499 1502 1504
1472 1474 1490 1475 1463 1455 1441 1435 1413 1404 1400 1396 1395 1395 1397 1397 1394 1391 1389 1387 1385 1384 1388 1390 1393 1397 1398 1401 1406 1408 1413 1419 1422 1428 1431 1436 1442 1448 1456 1467 1471 1476 1481 1487 1490 1493 1496 1499 1501
1470 1475 1465 1467 1453 1455 1435 1415 1405 1398 1395 1392 1392 1394 1395 1393 1389 1387 1385 1385 1383 1378 1378 1381 1385 1388 1391 1394 1397 1399 1405 1412 1415 1423 1429 1434 1437 1440 1451 1457 1467 1469 1476 1484 1488 1491 1494 1497 1499
1463 1464 1478 1474 1457 1441 1424 1417 1408 1399 1393 1392 1395 1395 1391 1389 1386 1383 1382 1380 1379 1377 1374 1373 1375 1379 1381 1384 1390 1392 1398 1402 1407 1417 1426 1431 1434 1438 1446 1452 1460 1463 1473 1480 1487 1490 1491 1495 1496
1461 1464 1464 1460 1454 1439 1427 1414 1406 1401 1398 1397 1395 1393 1391 1388 1386 1383 1379 1377 1373 1371 1370 1369 1368 1370 1372 1376 1381 1385 1390 1391 1400 1410 1420 1427 1431 1435 1442 1448 1452 1457 1463 1474 1483 1488 1488 1493 1495
1452 1452 1458 1456 1444 1439 1440 1406 1395 1395 1399 1399 1396 1395 1391 1385 1381 1378 1375 1372 1370 1366 1363 1361 1360 1359 1362 1366 1371 1378 1382 1386 1395 1402 1410 1418 1423 1431 1436 1444 1452 1454 1461 1467 1478 1486 1486 1494 1496
Wind_Speed
6 6 3 3 3 4 4 6 0 7 5 9 6 8 23 9 7 5 7 18 21 21 35 33 30 28 26 24 22 20 19 19 20 21 21 21 20 19 19 19 19 17 15 14 14 13 12 11 12
5 3 0 2 3 2 5 4 3 5 5 24 22 4 5 7 10 5 16 24 24 21 35 34 32 29 27 25 24 23 21 20 21 22 23 23 22 20 20 20 19 16 14 13 12 11 11 11 12
3 3 2 3 4 6 5 3 2 10 22 17 13 21 8 6 11 6 10 25 26 28 35 34 33 31 29 27 25 24 22 21 22 23 24 24 22 21 20 20 18 16 13 12 11 11 11 11 12
2 3 3 4 9 6 5 1 6 8 14 10 14 11 11 17 7 13 14 21 25 32 35 34 33 32 29 28 27 25 23 22 23 24 24 24 23 22 20 19 17 15 14 12 11 11 11 11 12
3 3 2 2 6 5 6 6 11 5 9 17 20 9 12 11 10 14 20 25 27 34 35 35 34 33 30 29 28 26 24 23 23 24 24 23 23 21 19 18 17 16 14 12 11 11 10 11 11
3 3 2 4 5 5 7 10 8 4 8 15 20 14 10 19 16 16 22 25 29 33 36 36 34 33 31 30 28 26 25 23 23 23 24 23 22 20 19 18 17 15 13 12 11 10 10 11 11
6 4 4 3 3 5 4 11 6 7 8 7 24 4 11 27 12 20 25 28 34 36 37 37 36 34 31 30 28 27 26 24 23 24 24 23 22 20 18 17 16 14 13 11 10 10 10 10 11
2 4 2 3 1 6 4 17 13 7 7 13 16 5 13 38 13 19 23 29 40 38 37 37 38 37 35 32 29 28 27 25 23 24 23 23 22 20 18 16 15 14 12 11 10 10 10 10 10
2 3 2 4 2 6 15 7 17 13 18 18 12 9 17 23 5 16 19 26 36 38 37 38 39 38 36 34 32 29 27 25 23 23 23 23 23 21 19 16 15 13 12 11 11 11 11 11 11
4 3 7 7 4 7 17 15 28 10 20 12 16 25 18 19 18 10 15 21 32 38 40 38 37 38 37 35 33 31 29 28 27 25 25 24 23 21 19 17 16 14 13 11 11 13 15 15 13
2 4 5 10 20 18 8 20 27 11 5 13 18 26 18 15 13 12 12 19 26 31 37 39 40 39 39 38 36 33 32 31 28 26 26 26 25 23 21 19 17 15 13 13 12 15 16 14 12
3 7 2 9 17 13 6 14 10 16 8 20 17 21 24 14 10 10 12 11 15 29 35 40 40 39 39 39 38 37 34 33 32 30 28 27 26 25 22 20 17 15 14 14 15 15 15 14 11
2 3 16 24 18 20 17 10 13 19 24 24 24 21 26 26 20 17 14 17 18 17 30 41 44 43 42 41 41 40 38 36 32 30 28 28 27 26 23 20 18 17 16 15 16 15 14 15 9
7 9 17 13 21 16 8 8 9 20 24 28 28 25 27 30 32 24 22 20 18 18 15 38 44 47 46 46 45 44 41 37 33 30 29 28 27 26 23 21 19 19 18 18 17 13 13 15 10
12 7 9 9 9 5 8 6 5 19 28 27 29 31 30 32 32 36 28 25 20 18 18 15 33 47 49 49 48 46 44 38 34 31 30 28 28 26 23 22 21 21 20 20 17 14 15 13 9
6 3 5 6 6 11 1 8 9 20 17 26 29 33 36 30 29 31 33 27 24 24 21 21 22 37 51 51 50 48 43 38 35 33 31 30 28 26 25 23 24 24 23 21 18 15 14 11 9
5 6 6 10 4 6 2 16 6 23 21 16 22 30 36 37 36 33 28 29 26 20 21 25 24 27 45 52 51 49 41 38 37 33 32 31 30 28 28 26 27 25 22 21 19 17 16 13 11
8 7 8 12 11 15 14 17 12 17 15 19 27 28 31 37 32 27 17 17 11 10 13 17 23 25 33 49 49 45 41 39 35 35 35 33 32 31 30 29 26 25 22 21 21 18 17 14 12
7 9 12 14 15 6 15 15 19 15 15 16 23 29 35 40 41 30 23 22 19 13 7 16 22 26 34 44 48 42 44 39 39 38 35 32 32 32 31 31 28 25 22 21 23 21 19 15 12
6 9 14 18 10 6 13 23 21 8 9 24 29 32 34 36 38 40 32 27 25 20 12 10 20 28 31 35 43 43 40 37 37 36 33 33 33 35 33 31 30 27 24 24 24 23 21 17 12
12 9 14 18 16 5 6 21 12 13 16 26 30 33 34 35 38 39 37 31 28 22 20 12 14 24 35 35 41 41 40 37 34 35 34 35 33 37 34 31 31 28 28 26 28 25 20 20 15
11 11 14 12 10 14 6 16 29 10 7 7 21 28 33 38 37 36 39 35 32 32 27 18 18 20 28 40 43 48 48 41 39 39 33 34 31 35 36 32 31 31 29 28 27 23 20 19 18
5 10 7 11 12 7 2 2 25 3 15 19 15 19 21 23 23 16 21 19 25 25 22 15 19 25 28 34 43 49 50 46 43 37 32 40 36 35 36 35 34 32 31 31 27 24 21 19 20
7 5 8 2 1 6 8 11 28 5 7 6 6 7 6 6 6 9 13 17 16 12 13 12 15 24 28 37 42 52 56 52 49 49 48 46 40 40 41 36 36 34 31 32 28 24 22 21 17
13 5 4 3 1 8 4 7 18 6 12 17 16 14 9 3 9 11 13 16 22 19 16 11 13 23 27 33 42 49 58 58 50 47 43 47 45 45 43 41 38 36 32 31 26 24 24 20 14
11 5 3 5 4 7 8 8 8 10 15 26 19 11 8 6 8 11 14 19 22 27 23 19 13 20 28 34 41 43 57 61 52 50 47 51 48 49 47 43 41 38 33 29 27 27 24 19 14
3 3 5 9 15 10 8 11 9 10 13 7 7 3 5 11 14 15 17 20 25 30 29 23 20 20 26 34 40 40 51 59 54 53 52 50 51 52 47 43 43 38 33 30 29 27 23 17 15
7 3 3 2 5 7 5 7 7 10 8 3 6 9 18 19 21 21 24 25 27 29 31 28 27 24 27 30 38 39 53 58 55 50 52 51 53 50 49 46 45 38 34 32 31 27 21 17 15
4 2 5 4 4 5 8 2 6 6 8 8 8 20 22 21 20 21 25 26 27 29 31 27 24 26 29 34 36 43 54 55 53 54 50 51 52 50 50 49 44 41 37 34 30 25 19 16 15
11 10 4 3 5 5 5 16 17 21 6 7 9 16 23 24 24 25 29 31 30 27 25 25 26 24 30 32 35 43 43 49 49 49 49 52 52 50 53 51 48 41 40 37 30 23 16 17 14
Wind_Direction
281 272 279 335 42 62 271 266 148 308 5 333 143 195 185 162 179 212 192 174 170 183 181 181 177 178 178 176 173 170 164 163 164 164 164 161 160 158 156 155 154 149 139 129 128 127 128 127 126
268 241 215 81 102 279 262 266 197 262 343 338 334 149 227 224 232 253 161 166 170 182 182 180 178 179 179 177 175 171 167 165 164 164 164 161 161 161 160 158 157 153 146 137 130 130 129 132 134
263 179 97 114 159 207 235 210 297 318 330 341 341 332 282 264 218 206 168 171 172 183 181 178 179 179 180 178 177 173 169 167 166 167 166 164 164 164 162 160 160 157 152 146 141 135 133 138 143
123 123 86 119 226 247 226 148 22 352 337 14 329 298 278 269 269 190 183 181 180 183 181 179 180 180 181 180 179 177 173 170 168 169 169 168 167 164 161 162 162 159 155 152 143 139 141 145 149
97 72 61 254 257 274 311 343 341 327 297 328 334 294 287 270 214 197 182 182 183 180 181 181 181 181 183 183 181 181 177 175 172 173 173 171 168 164 161 163 161 159 156 149 143 142 140 143 151
97 83 52 246 272 306 305 320 334 316 347 354 357 321 276 272 250 219 189 182 185 183 181 181 183 184 184 185 184 184 181 179 176 176 177 173 169 165 163 162 162 162 156 148 146 143 142 146 155
122 94 223 240 263 311 272 337 332 335 1 354 344 330 337 345 279 212 194 189 186 186 184 182 184 186 186 187 187 187 186 184 181 180 180 175 172 170 167 164 164 162 156 154 151 146 145 149 154
147 104 224 253 239 275 280 330 307 327 321 323 346 12 337 340 279 205 193 191 188 189 187 185 186 187 187 188 191 190 191 189 188 185 182 179 177 175 172 169 165 163 161 158 150 145 149 146 149
126 59 232 254 194 274 310 333 304 305 294 316 309 326 345 1 254 201 198 196 194 193 194 192 189 189 191 189 190 193 193 194 192 191 187 184 183 180 176 171 168 166 164 161 153 151 145 142 145
129 141 218 210 250 283 295 299 300 305 310 313 310 315 325 333 358 230 212 209 206 203 200 198 197 194 193 193 192 194 193 195 196 194 192 190 189 185 180 176 173 172 169 163 158 154 143 137 137
143 195 233 274 280 293 278 296 299 285 289 292 305 310 326 326 331 337 300 242 227 217 213 205 203 200 199 197 196 196 200 196 197 197 197 194 193 190 187 183 180 179 172 166 164 162 153 149 144
294 259 310 322 317 313 297 304 300 287 281 308 307 308 307 312 319 309 304 306 298 238 229 216 211 209 205 205 203 202 203 202 200 199 199 199 196 195 193 189 184 181 175 171 165 159 170 160 147
215 324 325 314 306 304 297 269 272 291 309 308 307 303 299 298 295 295 294 283 284 286 249 223 216 214 213 210 210 207 207 207 206 204 202 201 201 199 196 191 188 183 179 176 169 163 167 162 152
303 295 295 299 297 285 261 264 291 296 310 307 309 305 304 299 298 295 289 285 278 278 277 238 226 217 215 214 214 212 210 209 207 206 206 204 205 203 200 197 191 186 179 175 168 163 163 169 172
307 324 321 293 289 285 305 311 268 303 315 316 322 322 318 304 300 298 292 279 268 267 268 258 247 229 219 216 216 214 211 207 206 207 208 208 207 205 202 201 195 188 180 177 172 174 174 185 210
350 13 346 279 322 287 129 282 280 307 311 312 312 312 314 313 308 307 287 278 269 259 251 262 260 241 229 220 219 217 214 209 209 207 207 208 207 203 201 198 189 177 176 179 178 182 190 195 196
355 271 278 304 264 270 216 291 261 297 299 299 304 308 310 308 307 305 293 282 279 264 255 255 255 241 231 227 223 221 213 212 211 210 209 209 206 200 197 191 179 181 185 189 194 203 205 202 207
278 273 267 277 293 296 283 273 275 279 274 279 292 294 298 296 301 302 304 279 252 256 259 243 245 242 229 227 224 221 213 216 212 217 213 211 206 200 199 192 188 190 198 203 199 192 199 210 216
252 270 263 276 280 270 275 273 284 268 282 284 277 286 289 286 284 284 296 272 269 279 243 227 232 233 223 221 221 215 213 214 216 219 218 215 210 204 200 197 192 198 203 204 197 198 200 214 219
255 268 282 282 253 241 292 286 277 277 259 264 270 274 273 272 274 278 282 284 273 274 269 247 233 231 230 225 222 213 207 212 214 219 221 219 216 209 205 203 198 203 206 204 206 207 217 224 217
287 271 288 276 297 265 308 284 282 274 258 267 261 264 266 265 273 272 275 278 276 277 281 256 235 232 230 229 217 206 203 212 212 213 213 213 215 211 210 206 205 210 213 213 216 223 233 229 223
280 272 282 286 293 286 155 288 293 260 277 267 268 268 260 266 266 262 266 277 278 278 287 267 234 223 229 227 217 206 202 203 206 210 204 207 212 212 213 211 209 214 217 217 219 221 233 229 224
268 310 297 282 264 283 146 237 276 9 289 280 279 267 280 275 266 272 259 272 271 279 285 269 249 233 221 226 228 213 208 203 200 203 212 210 208 210 215 213 212 215 216 216 221 228 231 219 210
289 323 299 307 131 252 207 198 275 219 222 265 270 276 290 287 288 279 282 272 279 295 300 270 239 233 230 231 227 217 212 212 215 223 220 216 209 209 214 215 216 217 217 217 224 230 228 217 210
345 7 315 301 243 249 214 211 252 262 260 260 272 275 229 274 344 352 327 293 282 297 292 300 262 229 225 233 229 228 223 221 224 230 222 214 212 211 211 213 215 218 217 221 225 227 216 208 215
280 186 206 274 268 280 329 256 256 231 254 260 263 244 204 310 342 345 336 328 311 305 301 304 289 254 226 221 229 227 230 224 226 226 222 218 216 211 207 208 215 212 215 219 221 213 204 205 209
311 281 227 273 271 265 230 263 295 262 270 264 187 198 315 334 335 334 330 321 318 314 311 293 288 258 245 232 227 229 229 229 223 221 223 225 220 215 205 206 209 204 209 214 210 204 203 202 208
188 249 333 316 279 270 245 267 254 279 267 271 15 345 345 338 331 324 316 313 312 310 305 297 280 266 244 232 231 233 228 230 229 224 223 222 222 216 203 202 205 200 203 207 203 201 197 199 198
260 247 238 218 237 288 297 253 326 14 35 19 348 337 328 323 314 313 319 319 309 299 300 287 270 254 239 230 229 230 227 226 228 230 226 224 221 213 205 203 200 198 198 196 197 194 182 196 193
245 251 241 244 253 251 279 280 239 267 35 9 335 324 322 320 313 313 314 314 305 305 293 269 252 243 239 227 224 226 227 227 228 224 223 224 218 212 203 201 198 194 192 188 188 190 186 192 188